When you browse on this site, cookies collect data to enhance your experience and personalize the content and advertising you see.
Visit our Privacy Policy to learn more. By continuing to use the site, you agree to this use of cookies and data.
  • In Österreich
  • Länderverzeichnis
  • Für 7 Tage
  • Wassertemperatur
  • Wetterkarte
  • News
  • Widgets
  • user-avatar
    Anmelden

    Stündliche Wetter Montreal

    Heute, 6 Juni, Samstag

    Zeit Temperatur Niederschläge Wind Luftdruck Luftfeuchtigkeit
    00:00 +21°C° 0.9 mm 1 m/S 752 mmHg 84%
    01:00 +20°C° 0 mm 1 m/S 751 mmHg 88%
    02:00 +19°C° 1.3 mm 1 m/S 751 mmHg 89%
    03:00 +18°C° 1.3 mm 2 m/S 751 mmHg 90%
    04:00 +17°C° 1.3 mm 2 m/S 751 mmHg 91%
    05:00 +18°C° 0 mm 2 m/S 751 mmHg 89%
    06:00 +19°C° 0 mm 1 m/S 751 mmHg 86%
    07:00 +20°C° 0 mm 1 m/S 751 mmHg 84%
    08:00 +20°C° 0.2 mm 2 m/S 751 mmHg 77%
    09:00 +21°C° 0.2 mm 3 m/S 751 mmHg 71%
    10:00 +22°C° 0.2 mm 4 m/S 751 mmHg 65%
    11:00 +23°C° 0.3 mm 5 m/S 751 mmHg 63%
    12:00 +23°C° 0.3 mm 5 m/S 751 mmHg 61%
    13:00 +23°C° 0.3 mm 6 m/S 751 mmHg 59%
    14:00 +23°C° 0.3 mm 6 m/S 751 mmHg 59%
    15:00 +23°C° 0.3 mm 5 m/S 752 mmHg 60%
    16:00 +22°C° 0.3 mm 5 m/S 752 mmHg 61%
    17:00 +21°C° 0.6 mm 5 m/S 752 mmHg 66%
    18:00 +19°C° 0.6 mm 5 m/S 752 mmHg 71%
    19:00 +16°C° 0.6 mm 5 m/S 753 mmHg 75%
    20:00 +15°C° 0 mm 4 m/S 753 mmHg 73%
    21:00 +14°C° 0 mm 4 m/S 754 mmHg 71%
    22:00 +14°C° 0 mm 3 m/S 754 mmHg 69%
    23:00 +13°C° 0 mm 3 m/S 754 mmHg 71%

    Morgen, 7 Juni, Sonntag

    Zeit Temperatur Niederschläge Wind Luftdruck Luftfeuchtigkeit
    00:00 +12°C° 0 mm 3 m/S 754 mmHg 72%
    01:00 +13°C° 0 mm 2 m/S 755 mmHg 73%
    02:00 +12°C° 0 mm 2 m/S 755 mmHg 73%
    03:00 +11°C° 0 mm 3 m/S 755 mmHg 73%
    04:00 +10°C° 0 mm 3 m/S 755 mmHg 73%
    05:00 +11°C° 0 mm 3 m/S 755 mmHg 73%
    06:00 +12°C° 0 mm 3 m/S 756 mmHg 74%
    07:00 +13°C° 0 mm 4 m/S 756 mmHg 74%
    08:00 +14°C° 0 mm 3 m/S 757 mmHg 72%
    09:00 +14°C° 0 mm 3 m/S 757 mmHg 70%
    10:00 +16°C° 0 mm 3 m/S 757 mmHg 68%
    11:00 +18°C° 0 mm 2 m/S 757 mmHg 62%
    12:00 +20°C° 0 mm 1 m/S 756 mmHg 56%
    13:00 +22°C° 0 mm 1 m/S 756 mmHg 50%
    14:00 +22°C° 0 mm 1 m/S 756 mmHg 50%
    15:00 +21°C° 0 mm 2 m/S 756 mmHg 50%
    16:00 +21°C° 0 mm 2 m/S 755 mmHg 50%
    17:00 +20°C° 0 mm 2 m/S 756 mmHg 55%
    18:00 +19°C° 0 mm 2 m/S 756 mmHg 59%
    19:00 +18°C° 0 mm 2 m/S 757 mmHg 63%
    20:00 +18°C° 0 mm 2 m/S 757 mmHg 58%
    21:00 +17°C° 0 mm 3 m/S 757 mmHg 52%
    22:00 +15°C° 0 mm 4 m/S 757 mmHg 47%
    23:00 +14°C° 0 mm 3 m/S 758 mmHg 49%

    übermorgen, 8 Juni, Montag

    Zeit Temperatur Niederschläge Wind Luftdruck Luftfeuchtigkeit
    00:00 +13°C° 0 mm 3 m/S 758 mmHg 52%
    01:00 +12°C° 0 mm 3 m/S 758 mmHg 54%
    02:00 +12°C° 0 mm 3 m/S 758 mmHg 57%
    03:00 +11°C° 0 mm 3 m/S 758 mmHg 59%
    04:00 +10°C° 0 mm 2 m/S 759 mmHg 62%
    05:00 +11°C° 0 mm 3 m/S 759 mmHg 62%
    06:00 +12°C° 0 mm 3 m/S 760 mmHg 61%
    07:00 +13°C° 0 mm 3 m/S 760 mmHg 61%
    08:00 +15°C° 0 mm 2 m/S 760 mmHg 57%
    09:00 +16°C° 0 mm 2 m/S 760 mmHg 53%
    10:00 +18°C° 0 mm 2 m/S 759 mmHg 49%
    11:00 +19°C° 0 mm 2 m/S 759 mmHg 47%
    12:00 +20°C° 0 mm 2 m/S 759 mmHg 46%
    13:00 +21°C° 0 mm 2 m/S 759 mmHg 44%
    14:00 +21°C° 0 mm 2 m/S 759 mmHg 47%
    15:00 +21°C° 0 mm 3 m/S 758 mmHg 49%
    16:00 +21°C° 0 mm 3 m/S 758 mmHg 52%
    17:00 +20°C° 0 mm 3 m/S 758 mmHg 58%
    18:00 +19°C° 0 mm 3 m/S 758 mmHg 64%
    19:00 +18°C° 0 mm 3 m/S 759 mmHg 71%
    20:00 +17°C° 0 mm 3 m/S 759 mmHg 70%
    21:00 +17°C° 0 mm 3 m/S 759 mmHg 70%
    22:00 +16°C° 0 mm 3 m/S 759 mmHg 70%
    23:00 +16°C° 0 mm 3 m/S 759 mmHg 70%

    9 Juni, Dienstag

    Zeit Temperatur Niederschläge Wind Luftdruck Luftfeuchtigkeit
    00:00 +14°C° 0 mm 4 m/S 759 mmHg 71%
    01:00 +14°C° 0 mm 4 m/S 759 mmHg 71%
    02:00 +14°C° 0 mm 3 m/S 759 mmHg 72%
    03:00 +14°C° 0 mm 3 m/S 759 mmHg 74%
    04:00 +14°C° 0 mm 3 m/S 759 mmHg 75%
    05:00 +14°C° 0 mm 3 m/S 759 mmHg 76%
    06:00 +14°C° 0 mm 3 m/S 759 mmHg 76%
    07:00 +16°C° 0 mm 3 m/S 759 mmHg 77%
    08:00 +17°C° 0 mm 3 m/S 759 mmHg 73%
    09:00 +19°C° 0 mm 3 m/S 759 mmHg 69%
    10:00 +21°C° 0 mm 4 m/S 758 mmHg 64%
    11:00 +22°C° 0 mm 4 m/S 758 mmHg 62%
    12:00 +23°C° 0 mm 4 m/S 758 mmHg 59%
    13:00 +26°C° 0 mm 4 m/S 757 mmHg 57%
    14:00 +26°C° 0 mm 4 m/S 757 mmHg 58%
    15:00 +26°C° 0 mm 4 m/S 757 mmHg 59%
    16:00 +27°C° 0 mm 4 m/S 757 mmHg 60%
    17:00 +26°C° 0 mm 3 m/S 757 mmHg 64%
    18:00 +25°C° 0 mm 2 m/S 756 mmHg 69%
    19:00 +24°C° 0 mm 1 m/S 756 mmHg 73%
    20:00 +23°C° 0 mm 2 m/S 756 mmHg 76%
    21:00 +21°C° 0 mm 2 m/S 757 mmHg 79%
    22:00 +20°C° 0 mm 2 m/S 757 mmHg 81%
    23:00 +20°C° 0 mm 2 m/S 757 mmHg 83%

    10 Juni, Mittwoch

    Zeit Temperatur Niederschläge Wind Luftdruck Luftfeuchtigkeit
    00:00 +20°C° 0 mm 2 m/S 756 mmHg 84%
    01:00 +19°C° 0 mm 2 m/S 756 mmHg 85%
    02:00 +19°C° 0 mm 2 m/S 756 mmHg 84%
    03:00 +19°C° 0 mm 3 m/S 756 mmHg 83%
    04:00 +19°C° 0 mm 3 m/S 756 mmHg 82%
    05:00 +20°C° 0 mm 3 m/S 755 mmHg 81%
    06:00 +20°C° 0 mm 4 m/S 755 mmHg 80%
    07:00 +21°C° 0 mm 4 m/S 755 mmHg 79%
    08:00 +23°C° 0 mm 4 m/S 755 mmHg 74%
    09:00 +25°C° 0 mm 5 m/S 754 mmHg 69%
    10:00 +27°C° 0 mm 5 m/S 754 mmHg 64%
    11:00 +28°C° 0 mm 6 m/S 753 mmHg 62%
    12:00 +30°C° 0 mm 6 m/S 753 mmHg 60%
    13:00 +32°C° 0 mm 6 m/S 753 mmHg 58%
    14:00 +32°C° 0 mm 6 m/S 753 mmHg 60%
    15:00 +32°C° 0 mm 5 m/S 752 mmHg 62%
    16:00 +32°C° 0 mm 5 m/S 752 mmHg 64%
    17:00 +29°C° 0.1 mm 5 m/S 752 mmHg 65%
    18:00 +28°C° 0.1 mm 6 m/S 752 mmHg 67%
    19:00 +27°C° 0.1 mm 6 m/S 752 mmHg 69%
    20:00 +27°C° 0 mm 6 m/S 752 mmHg 68%
    21:00 +26°C° 0 mm 6 m/S 752 mmHg 68%
    22:00 +25°C° 0 mm 5 m/S 752 mmHg 68%
    23:00 +23°C° 0.5 mm 6 m/S 752 mmHg 73%

    11 Juni, Donnerstag

    Zeit Temperatur Niederschläge Wind Luftdruck Luftfeuchtigkeit
    00:00 +22°C° 0.5 mm 6 m/S 753 mmHg 79%
    01:00 +21°C° 0.5 mm 7 m/S 753 mmHg 84%
    02:00 +20°C° 0.1 mm 7 m/S 753 mmHg 83%
    03:00 +18°C° 0.1 mm 7 m/S 754 mmHg 83%
    04:00 +18°C° 0.1 mm 7 m/S 754 mmHg 82%
    05:00 +18°C° 0 mm 7 m/S 755 mmHg 80%
    06:00 +18°C° 0 mm 7 m/S 755 mmHg 78%
    07:00 +18°C° 0 mm 7 m/S 756 mmHg 76%
    08:00 +20°C° 0 mm 6 m/S 756 mmHg 71%
    09:00 +21°C° 0 mm 6 m/S 756 mmHg 66%
    10:00 +22°C° 0 mm 6 m/S 756 mmHg 62%
    11:00 +23°C° 0 mm 6 m/S 756 mmHg 60%
    12:00 +24°C° 0 mm 6 m/S 755 mmHg 57%
    13:00 +26°C° 0 mm 6 m/S 755 mmHg 55%
    14:00 +26°C° 0 mm 6 m/S 755 mmHg 56%
    15:00 +26°C° 0 mm 7 m/S 755 mmHg 57%
    16:00 +26°C° 0 mm 7 m/S 755 mmHg 58%
    17:00 +24°C° 0 mm 6 m/S 755 mmHg 62%
    18:00 +23°C° 0 mm 5 m/S 755 mmHg 66%
    19:00 +22°C° 0 mm 4 m/S 756 mmHg 70%
    20:00 +21°C° 0 mm 4 m/S 756 mmHg 69%
    21:00 +20°C° 0 mm 4 m/S 756 mmHg 69%
    22:00 +19°C° 0 mm 4 m/S 757 mmHg 69%
    23:00 +19°C° 0 mm 3 m/S 757 mmHg 71%
    Mehr zeigen